EDT,Max TemperatureF,Mean TemperatureF,Min TemperatureF,Max Dew PointF,MeanDew PointF,Min DewpointF,Max Humidity, Mean Humidity, Min Humidity, Max Sea Level PressureIn, Mean Sea Level PressureIn, Min Sea Level PressureIn, Max VisibilityMiles, Mean VisibilityMiles, Min VisibilityMiles, Max Wind SpeedMPH, Mean Wind SpeedMPH, Max Gust SpeedMPH,PrecipitationIn, CloudCover, Events, WindDirDegrees
2013-8-1,78,70,61,67,65,62,100,82,64,30.04,29.98,29.91,10,7,1,14,4,20,0.02,7,Rain,304
2013-8-2,76,67,57,63,60,56,100,77,53,30.10,30.04,29.97,10,5,0,12,4,15,0.00,2,Fog,222
2013-8-3,79,70,60,70,64,60,100,79,58,30.08,30.02,29.97,10,10,6,14,4,20,T,5,Rain,309
2013-8-4,74,65,56,66,62,58,100,81,61,30.13,30.06,29.97,10,7,0,15,5,20,0.00,6,Fog,344
2013-8-5,76,64,52,60,58,54,100,79,57,30.11,30.06,30.00,10,10,6,9,2,14,0.00,4,,360
2013-8-6,80,70,59,67,63,58,100,79,58,30.02,29.99,29.95,10,10,8,9,4,13,0.00,5,,193
2013-8-7,78,73,67,72,69,66,100,88,76,30.13,30.04,29.98,10,8,0,15,6,21,0.83,7,Fog-Rain,171
2013-8-8,78,73,67,72,69,66,100,87,74,30.12,30.04,29.96,10,8,0,14,5,23,0.58,7,Fog-Rain,202
2013-8-9,82,76,70,72,69,66,100,79,58,30.15,30.03,29.96,10,9,2,17,8,25,0.02,6,Rain,239
2013-8-10,81,75,68,69,67,65,97,80,62,30.20,30.11,30.03,10,9,2,12,6,15,1.03,7,Rain,245
2013-8-11,80,74,67,70,67,66,100,84,67,30.22,30.14,30.04,10,7,1,13,5,18,1.40,7,Rain,237
2013-8-12,80,73,66,67,65,63,93,76,58,30.18,30.11,29.94,10,5,0,9,4,14,0.12,6,Fog-Rain,243
2013-8-13,75,69,62,66,64,60,93,81,68,30.01,29.94,29.85,10,8,1,18,6,26,0.47,7,Rain,275
2013-8-14,68,59,49,58,50,44,93,71,48,30.17,30.07,29.95,10,10,9,15,6,20,0.00,5,,350
2013-8-15,73,59,45,52,49,42,93,71,49,30.18,30.14,30.09,10,10,10,15,5,22,0.00,1,,133
2013-8-16,77,66,55,54,52,49,83,61,38,30.16,30.12,30.09,10,10,10,13,6,20,0.00,0,,130
2013-8-17,70,63,55,59,55,51,93,75,57,30.25,30.20,30.15,10,10,6,16,7,22,T,5,Rain,119
2013-8-18,70,66,61,63,59,57,93,83,73,30.27,30.19,30.14,10,10,3,13,6,17,0.07,8,Rain,133
2013-8-19,76,69,61,64,63,59,93,81,68,30.23,30.17,30.09,10,8,2,9,3,12,0.10,7,Rain,274
2013-8-20,82,69,56,65,59,55,100,74,47,30.24,30.18,30.12,10,6,0,9,2,12,0.00,1,Fog,62
2013-8-21,79,71,62,67,65,61,100,81,62,30.29,30.18,30.12,10,10,2,13,5,15,0.07,4,Rain,216
2013-8-22,78,68,58,67,62,57,97,81,64,30.25,30.17,30.06,10,6,0,14,4,20,0.01,4,Fog-Rain,246
2013-8-23,73,68,64,65,64,63,93,83,73,30.15,30.09,30.00,10,4,1,7,2,,0.08,6,Rain,303
2013-8-24,,,,,,,,,,,,,,,,,,,,,,
2013-8-25,,,,,,,,,,,,,,,,,,,,,,
2013-8-26,,,,,,,,,,,,,,,,,,,,,,
2013-8-27,79,71,63,68,66,65,90,79,67,30.20,30.09,30.02,8,5,3,14,5,20,T,4,,282
2013-8-28,82,76,69,70,67,66,97,80,62,30.11,30.01,29.89,10,5,2,23,8,30,0.03,6,Rain,247
2013-8-29,83,76,68,70,67,64,97,76,55,30.10,30.00,29.89,10,7,4,14,5,21,T,6,,325
2013-8-30,84,75,66,66,64,63,90,72,54,30.11,29.98,29.91,10,9,6,13,5,18,0.00,1,,171
2013-8-31,81,73,64,70,65,62,93,77,60,30.03,29.92,29.84,10,8,1,14,4,17,0.32,3,Rain,231